Regional Weather Roundup
Issued by NWS Upton, NY

Current Version | Previous Version | Text Only | Print | Product List | Glossary On
Versions: 1 2 3 4 5 6 7 8 9 10 11 12 13 14 15 16 17 18 19 20 21 22 23 24 25 26 27 28 29 30 31 32 33 34 35 36 37 38 39 40 41 42 43 44 45 46 47 48 49 50
324 ASUS41 KOKX 300808 RWROKX REGIONAL WEATHER ROUNDUP NATIONAL WEATHER SERVICE NEW YORK NY 400 AM EDT SUN APR 30 2017 NOTE: "FAIR" INDICATES FEW OR NO CLOUDS BELOW 12,000 FEET WITH NO SIGNIFICANT WEATHER AND/OR OBSTRUCTIONS TO VISIBILITY. NYZ071-072-176-178-NJZ106-104-300900- NEW YORK CITY METRO AREA CITY SKY/WX TMP DP RH WIND PRES REMARKS Central Park CLEAR 64 43 46 VRB3 30.17R Wall St Helipt PTSUNNY 64 44 48 CALM 30.16R Bronx Bot Gard N/A 63 45 51 N6 30.17R LaGuardia APRT MOCLDY 65 45 48 N6 30.14R Kennedy INTL MOCLDY 65 47 52 N6 30.15R Breezy Point N/A 64 N/A N/A N7 N/A Newark/Liberty MOCLDY 64 42 44 N10 30.15R Teterboro CLEAR 62 44 51 N3 30.14R $$ NYZ177-179-078>081-300900- LONG ISLAND NEW YORK CITY SKY/WX TMP DP RH WIND PRES REMARKS Jones Beach N/A 63 N/A N/A N7 N/A Matinecock PT N/A 63 N/A N/A N9 N/A Farmingdale CLEAR 62 51 67 N6 30.15R MacArthur/ISP CLEAR 62 48 60 NE7 30.14R Shirley NOT AVBL Mt Sinai Harb N/A 54 N/A N/A N8 N/A Westhampton CLEAR 60 40 47 N12 30.17R East Hampton N/A 59 38 46 N8G16 30.15R Montauk N/A 55 43 63 N3 30.16R $$ NYZ052-065-067-300900- HUDSON VALLEY CITY SKY/WX TMP DP RH WIND PRES REMARKS White Plains CLEAR 59 44 57 NE7 30.15R Larchmont Harb N/A 63 N/A N/A N8 N/A Croton O-T Hud N/A 59 N/A N/A N6 N/A Newburgh CLEAR 54 43 66 E12 30.18R Montgomery CLEAR 54 42 64 CALM 30.16R Poughkeepsie CLEAR 53 35 50 N9 30.17R Albany CLEAR 47 31 53 N13G20 30.24R $$ NJZ001-105-106-008-010-013-015-019>022-104-300900- NEW JERSEY CITY SKY/WX TMP DP RH WIND PRES REMARKS Newark/Liberty MOCLDY 64 42 44 N10 30.15R Teterboro CLEAR 62 44 51 N3 30.14R Caldwell CLEAR 61 42 49 CALM 30.16R Somerville MOCLDY 61 47 59 N3 30.14R Linden PTSUNNY 64 39 40 N5 30.15R Perth Amboy N/A 64 N/A N/A N9 N/A Sussex PTCLDY 54 44 69 NW3 30.17F Andover N/A 56 44 64 CALM 30.16S Trenton PTCLDY 63 51 65 N5 30.14R Millville MOCLDY 70 62 76 NE8 30.12R Atlantic City PTCLDY 67 57 70 NE10 30.13R Wrightstown PTCLDY 63 56 77 NE3 30.12R Toms River PTCLDY 61 58 90 CALM 30.15R Belmar CLEAR 64 55 72 N5 30.15R $$ PAZ047>061-062-071-300900- EASTERN PENNSYLVANIA CITY SKY/WX TMP DP RH WIND PRES REMARKS Philadelphia MOCLDY 68 56 65 NE7 30.14R Allentown CLEAR 57 49 74 NE5 30.15R Scranton CLEAR 53 38 56 N8 30.18F $$ CTZ002-004>006-009-010-012-RIZ004-006-007-MAZ004-011-015-300900- SOUTHERN NEW ENGLAND IN CT CITY SKY/WX TMP DP RH WIND PRES REMARKS Bradley INTL CLEAR 53 35 50 N8 30.17R Hartford CLEAR 55 35 47 N6 30.18R Danbury CLEAR 53 36 52 N9 30.18R Wtrbury/Oxford CLEAR 54 32 43 NE10 30.17R Bridgeport CLEAR 62 38 40 N8 30.16R Meriden CLEAR 58 35 42 NW8 30.17R New Haven CLEAR 58 33 39 N12 30.16R Chester N/A 57 36 44 N9G17 30.16R Groton CLEAR 59 38 45 N7 30.14R Wilimantic CLEAR 57 39 51 NW3 30.17R IN RI CITY SKY/WX TMP DP RH WIND PRES REMARKS Providence CLEAR 59 40 49 N9 30.14R Block Island CLEAR 57 41 55 N8 30.14R Westerly CLEAR 60 40 47 N9 30.15R IN MA CITY SKY/WX TMP DP RH WIND PRES REMARKS Boston CLEAR 57 35 43 NW13 30.15R Worcester PTCLDY 51 34 52 N9 30.16R Westfield CLEAR 50 37 61 N9 30.17R Provincetown CLEAR 49 43 80 NE12 30.16R Nantucket CLOUDY 59 44 57 NW13 30.12R $$ ANZ330-335-338-340-345-350-353-355-300900- COASTAL MARINE OBSERVATIONS STATION/POSITION TIME SKY/WX TEMP WIND PRES VSBY WAVE AIR SEA DIR/SP/G HT/PER (UTC) (F) (DEG/KT/KT) (MB) (MI) (FT/S) NY HARB ENTRANCE 0650 59 50 330/ 6/ 8 1020.4 3/ 7 20 S FIRE ISLAND 0750 57 50 360/ 10/ 10 1019.6 3/ 7 GREAT SOUTH BAY 0730 64 62 20/ 6/ 10 N/A 23 SSW MONTAUK P 0650 56 48 1020.2 3/ 7 15 E BARNEGAT LI 0730 55 N/A 4/ 7 HUDSON CANYON 0650 56 49 310/ 4/ 6 1020.0 4/ 7 KINGS POINT 0748 60 53 50/ 7/ 8 1020.7 EXECUTION ROCKS NOT AVBL CENTRAL LI SOUND 0730 54 350/ 10/ 12 N/A 0 EASTERN LI SOUND NOT AVBL ROBBINS REEF 0748 65 340/ 7/ 8 1021.1 $$ >>>>>>>>>>>>>>>>>>>>>>>>>>>> KEY <<<<<<<<<<<<<<<<<<<<<<<<<<< > < > SKY/WX - Sky Condition/Present Weather < > TMP - Temperature in Fahrenheit < > DP - Dew Point in Fahrenheit < > RH - Relative Humidity in Percent < > WIND - Direction (from) and Speed in MPH < > PRES - Mean Sea Level Pressure (inches of Hg) < > WCI - Wind Chill Index < > VSB - VISIBILITY IN MILES < > HX - HEAT INDEX < > TC - TEMPERATURE IN CELSIUS < > VRB - VARIABLE WIND DIRECTION < > < >>>>>>>>>>>>>>>>>>>>>>>>>>>> KEY <<<<<<<<<<<<<<<<<<<<<<<<<<<

USA.gov is the U.S. government's official web portal to all federal, state and local government web resources and services.